Powrót do katalogu

STARLINK-3523

AktywnyŁącznośćVLEO
NORAD 51729·PAYLOAD·🇺🇸 United States

Wystrzelony Feb 21, 2022 z Cape Canaveral Space Force Station

Loading…

Następne Przeloty (najbliższe 24 godziny)

TLE

ŚwieżeSource: CelesTrak SupGP

Epoka: Sep 14, 2026, 20:53 UTC

1 51729C 22016R   26257.87062500 -.00018440  00000+0 -54477-3 0  2570
2 51729  53.1578 175.7231 0001319  91.0180  18.1885 15.34402428    19

Śledź STARLINK-3523 w czasie rzeczywistym z AllMySat

Download on the App Store